Time,TemperatureF,DewpointF,PressureIn,WindDirection,WindDirectionDegrees,WindSpeedMPH,WindSpeedGustMPH,Humidity,HourlyPrecipIn,Conditions,Clouds,dailyrainin,SoftwareType,DateUTC
2013-06-25 00:00:00,78.1,75.9,30.03,South,183,0.0,0.0,93,0.00,,,0.08,Wunderground v.1.15,2013-06-25 04:00:00,
2013-06-25 00:05:00,77.9,75.7,30.03,NE,38,0.0,0.0,93,0.00,,,0.00,Wunderground v.1.15,2013-06-25 04:05:00,
2013-06-25 00:15:00,77.6,75.4,30.03,NE,38,0.0,0.0,93,0.00,,,0.00,Wunderground v.1.15,2013-06-25 04:15:00,
2013-06-25 00:25:00,77.6,75.7,30.03,NE,38,0.0,0.0,94,0.00,,,0.00,Wunderground v.1.15,2013-06-25 04:25:00,
2013-06-25 00:30:00,77.6,75.7,30.03,NE,38,0.0,0.0,94,0.00,,,0.00,Wunderground v.1.15,2013-06-25 04:30:00,
2013-06-25 00:35:00,77.6,75.4,30.03,NE,38,0.0,0.0,93,0.00,,,0.00,Wunderground v.1.15,2013-06-25 04:35:00,
2013-06-25 00:40:00,77.6,75.7,30.03,NE,38,0.0,0.0,94,0.00,,,0.00,Wunderground v.1.15,2013-06-25 04:40:00,
2013-06-25 00:50:00,77.6,75.7,30.03,NE,38,0.0,0.0,94,0.00,,,0.00,Wunderground v.1.15,2013-06-25 04:50:00,
2013-06-25 01:00:00,77.4,75.5,30.03,ENE,64,0.0,0.0,94,0.00,,,0.00,Wunderground v.1.15,2013-06-25 05:00:00,
2013-06-25 01:05:00,77.4,75.2,30.03,ENE,70,0.0,0.0,93,0.00,,,0.00,Wunderground v.1.15,2013-06-25 05:05:00,
2013-06-25 01:15:00,77.0,74.8,30.02,East,93,0.0,0.0,93,0.00,,,0.00,Wunderground v.1.15,2013-06-25 05:15:00,
2013-06-25 01:20:00,77.0,74.8,30.02,East,80,0.0,0.0,93,0.00,,,0.00,Wunderground v.1.15,2013-06-25 05:20:00,
2013-06-25 01:30:00,77.0,74.5,30.02,East,96,0.0,0.0,92,0.00,,,0.00,Wunderground v.1.15,2013-06-25 05:30:00,
2013-06-25 01:40:00,76.8,74.3,30.02,SE,124,0.0,0.0,92,0.00,,,0.00,Wunderground v.1.15,2013-06-25 05:40:00,
2013-06-25 01:50:00,76.8,74.0,30.01,ESE,119,0.0,0.0,91,0.00,,,0.00,Wunderground v.1.15,2013-06-25 05:50:00,
2013-06-25 01:55:00,77.0,73.8,30.01,ESE,117,1.0,7.0,90,0.00,,,0.00,Wunderground v.1.15,2013-06-25 05:55:00,
2013-06-25 02:05:00,77.2,73.4,30.00,SE,125,2.0,6.0,88,0.00,,,0.00,Wunderground v.1.15,2013-06-25 06:05:00,
2013-06-25 02:15:00,77.2,73.4,30.00,SE,124,0.0,1.0,88,0.00,,,0.00,Wunderground v.1.15,2013-06-25 06:15:00,
2013-06-25 02:20:00,77.4,73.6,30.00,SE,124,0.0,0.0,88,0.00,,,0.00,Wunderground v.1.15,2013-06-25 06:20:00,
2013-06-25 02:30:00,77.4,73.6,30.00,SE,131,0.0,0.0,88,0.00,,,0.00,Wunderground v.1.15,2013-06-25 06:30:00,
2013-06-25 02:35:00,77.4,73.6,30.00,SE,137,0.0,0.0,88,0.00,,,0.00,Wunderground v.1.15,2013-06-25 06:35:00,
2013-06-25 02:45:00,77.4,73.6,29.99,SE,137,0.0,0.0,88,0.00,,,0.00,Wunderground v.1.15,2013-06-25 06:45:00,
2013-06-25 02:55:00,77.4,73.6,29.99,SE,136,0.0,0.0,88,0.00,,,0.00,Wunderground v.1.15,2013-06-25 06:55:00,
2013-06-25 03:05:00,77.4,73.9,29.99,SE,136,0.0,0.0,89,0.00,,,0.00,Wunderground v.1.15,2013-06-25 07:05:00,
2013-06-25 03:15:00,77.2,73.7,29.99,SE,136,0.0,0.0,89,0.00,,,0.00,Wunderground v.1.15,2013-06-25 07:15:00,
2013-06-25 03:20:00,77.2,73.7,29.99,SE,136,0.0,0.0,89,0.00,,,0.00,Wunderground v.1.15,2013-06-25 07:20:00,
2013-06-25 03:30:00,77.0,73.5,29.99,SE,136,0.0,0.0,89,0.00,,,0.00,Wunderground v.1.15,2013-06-25 07:30:00,
2013-06-25 03:40:00,76.8,73.3,29.99,SE,136,0.0,0.0,89,0.00,,,0.00,Wunderground v.1.15,2013-06-25 07:40:00,
2013-06-25 03:45:00,76.7,73.5,29.99,SE,136,0.0,0.0,90,0.00,,,0.00,Wunderground v.1.15,2013-06-25 07:45:00,
2013-06-25 03:55:00,76.5,73.3,29.99,ESE,111,0.0,0.0,90,0.00,,,0.00,Wunderground v.1.15,2013-06-25 07:55:00,
2013-06-25 04:00:00,76.3,73.1,29.98,ESE,111,0.0,0.0,90,0.00,,,0.00,Wunderground v.1.15,2013-06-25 08:00:00,
2013-06-25 04:10:00,76.1,73.3,29.98,ESE,110,0.0,0.0,91,0.00,,,0.00,Wunderground v.1.15,2013-06-25 08:10:00,
2013-06-25 04:20:00,75.8,73.0,29.97,ESE,110,0.0,0.0,91,0.00,,,0.00,Wunderground v.1.15,2013-06-25 08:20:00,
2013-06-25 04:30:00,75.6,73.1,29.97,ESE,116,1.0,1.0,92,0.00,,,0.00,Wunderground v.1.15,2013-06-25 08:30:00,
2013-06-25 04:35:00,75.6,73.1,29.97,ESE,115,1.0,1.0,92,0.00,,,0.00,Wunderground v.1.15,2013-06-25 08:35:00,
2013-06-25 04:45:00,75.8,73.3,29.96,SE,139,2.0,3.0,92,0.00,,,0.00,Wunderground v.1.15,2013-06-25 08:45:00,
2013-06-25 04:55:00,75.8,73.3,29.96,SE,129,0.0,1.0,92,0.00,,,0.00,Wunderground v.1.15,2013-06-25 08:55:00,
2013-06-25 05:00:00,75.8,73.3,29.97,SE,129,0.0,0.0,92,0.00,,,0.00,Wunderground v.1.15,2013-06-25 09:00:00,
2013-06-25 05:10:00,75.6,73.1,29.97,ESE,122,0.0,0.0,92,0.00,,,0.00,Wunderground v.1.15,2013-06-25 09:10:00,
2013-06-25 05:15:00,75.6,73.1,29.97,ESE,114,0.0,0.0,92,0.00,,,0.00,Wunderground v.1.15,2013-06-25 09:15:00,
2013-06-25 05:25:00,75.6,73.1,29.97,ESE,103,0.0,0.0,92,0.00,,,0.00,Wunderground v.1.15,2013-06-25 09:25:00,
2013-06-25 05:35:00,75.4,73.2,29.97,ESE,103,0.0,0.0,93,0.00,,,0.00,Wunderground v.1.15,2013-06-25 09:35:00,
2013-06-25 05:45:00,75.4,73.2,29.98,ESE,102,0.0,0.0,93,0.00,,,0.00,Wunderground v.1.15,2013-06-25 09:45:00,
2013-06-25 05:50:00,75.4,73.2,29.98,ESE,102,0.0,0.0,93,0.00,,,0.00,Wunderground v.1.15,2013-06-25 09:50:00,
2013-06-25 06:00:00,75.3,73.1,29.98,ESE,102,0.0,0.0,93,0.00,,,0.00,Wunderground v.1.15,2013-06-25 10:00:00,
2013-06-25 06:10:00,75.1,73.3,29.98,ESE,102,0.0,0.0,94,0.00,,,0.00,Wunderground v.1.15,2013-06-25 10:10:00,
2013-06-25 06:20:00,75.1,73.3,29.98,ESE,102,0.0,0.0,94,0.00,,,0.00,Wunderground v.1.15,2013-06-25 10:20:00,
2013-06-25 06:25:00,75.1,73.3,29.98,ESE,102,0.0,0.0,94,0.00,,,0.00,Wunderground v.1.15,2013-06-25 10:25:00,
2013-06-25 06:35:00,75.1,73.3,29.98,ESE,102,0.0,0.0,94,0.00,,,0.00,Wunderground v.1.15,2013-06-25 10:35:00,
2013-06-25 06:45:00,75.1,73.3,29.98,ESE,102,0.0,0.0,94,0.00,,,0.00,Wunderground v.1.15,2013-06-25 10:45:00,
2013-06-25 06:50:00,75.1,73.3,29.98,ESE,102,0.0,0.0,94,0.00,,,0.00,Wunderground v.1.15,2013-06-25 10:50:00,
2013-06-25 07:00:00,75.1,73.3,29.98,ESE,102,0.0,0.0,94,0.00,,,0.00,Wunderground v.1.15,2013-06-25 11:00:00,
2013-06-25 07:10:00,75.1,73.3,29.98,ESE,102,0.0,0.0,94,0.00,,,0.00,Wunderground v.1.15,2013-06-25 11:10:00,
2013-06-25 07:20:00,75.4,73.6,29.98,ESE,102,0.0,0.0,94,0.00,,,0.00,Wunderground v.1.15,2013-06-25 11:20:00,
2013-06-25 07:25:00,75.8,73.9,29.98,ESE,102,0.0,0.0,94,0.00,,,0.00,Wunderground v.1.15,2013-06-25 11:25:00,
2013-06-25 07:35:00,76.1,74.2,29.99,ESE,102,0.0,0.0,94,0.00,,,0.00,Wunderground v.1.15,2013-06-25 11:35:00,
2013-06-25 07:40:00,76.3,74.4,29.99,East,92,0.0,0.0,94,0.00,,,0.00,Wunderground v.1.15,2013-06-25 11:40:00,
2013-06-25 07:50:00,76.8,74.6,29.99,East,84,0.0,0.0,93,0.00,,,0.00,Wunderground v.1.15,2013-06-25 11:50:00,
2013-06-25 08:00:00,77.2,74.7,29.99,ESE,114,0.0,0.0,92,0.00,,,0.00,Wunderground v.1.15,2013-06-25 12:00:00,
2013-06-25 08:05:00,77.6,75.1,29.99,ENE,72,0.0,0.0,92,0.00,,,0.00,Wunderground v.1.15,2013-06-25 12:05:00,
2013-06-25 08:15:00,77.9,75.1,30.00,ESE,109,0.0,0.0,91,0.00,,,0.00,Wunderground v.1.15,2013-06-25 12:15:00,
2013-06-25 08:25:00,78.5,74.6,30.00,SE,124,1.0,2.0,88,0.00,,,0.00,Wunderground v.1.15,2013-06-25 12:25:00,
2013-06-25 08:35:00,79.2,74.6,30.00,ESE,109,0.0,1.0,86,0.00,,,0.00,Wunderground v.1.15,2013-06-25 12:35:00,
2013-06-25 08:40:00,79.6,74.7,30.00,East,90,0.0,0.0,85,0.00,,,0.00,Wunderground v.1.15,2013-06-25 12:40:00,
2013-06-25 08:50:00,79.8,74.5,30.01,ESE,110,1.0,1.0,84,0.00,,,0.00,Wunderground v.1.15,2013-06-25 12:50:00,
2013-06-25 09:00:00,80.3,74.3,30.01,ESE,122,1.0,1.0,82,0.00,,,0.00,Wunderground v.1.15,2013-06-25 13:00:00,
2013-06-25 09:05:00,80.5,74.5,30.01,ENE,67,0.0,9.0,82,0.00,,,0.00,Wunderground v.1.15,2013-06-25 13:05:00,
2013-06-25 09:15:00,80.7,74.3,30.01,ENE,77,1.0,9.0,81,0.00,,,0.00,Wunderground v.1.15,2013-06-25 13:15:00,
2013-06-25 09:25:00,81.4,74.3,30.01,ENE,76,1.0,2.0,79,0.00,,,0.00,Wunderground v.1.15,2013-06-25 13:25:00,
2013-06-25 09:30:00,81.4,73.9,30.01,East,81,1.0,1.0,78,0.00,,,0.00,Wunderground v.1.15,2013-06-25 13:30:00,
2013-06-25 09:40:00,81.8,74.3,30.01,NE,53,2.0,11.0,78,0.00,,,0.00,Wunderground v.1.15,2013-06-25 13:40:00,
2013-06-25 09:50:00,82.8,74.5,30.01,ESE,109,1.0,1.0,76,0.00,,,0.00,Wunderground v.1.15,2013-06-25 13:50:00,
2013-06-25 09:55:00,83.0,73.9,30.01,ESE,102,0.0,1.0,74,0.00,,,0.00,Wunderground v.1.15,2013-06-25 13:55:00,
2013-06-25 10:05:00,83.4,73.8,30.02,ESE,113,1.0,1.0,73,0.00,,,0.00,Wunderground v.1.15,2013-06-25 14:05:00,
2013-06-25 10:15:00,83.4,73.4,30.02,ESE,112,3.0,3.0,72,0.00,,,0.00,Wunderground v.1.15,2013-06-25 14:15:00,
2013-06-25 10:20:00,83.6,73.2,30.02,ESE,109,2.0,2.0,71,0.00,,,0.00,Wunderground v.1.15,2013-06-25 14:20:00,
2013-06-25 10:30:00,83.8,73.0,30.01,ESE,105,3.0,3.0,70,0.00,,,0.00,Wunderground v.1.15,2013-06-25 14:30:00,
2013-06-25 10:40:00,83.8,72.1,30.01,ENE,69,4.0,4.0,68,0.00,,,0.00,Wunderground v.1.15,2013-06-25 14:40:00,
2013-06-25 10:45:00,84.3,72.1,30.01,East,81,3.0,9.0,67,0.00,,,0.00,Wunderground v.1.15,2013-06-25 14:45:00,
2013-06-25 10:55:00,84.3,71.7,30.01,East,81,2.0,9.0,66,0.00,,,0.00,Wunderground v.1.15,2013-06-25 14:55:00,
2013-06-25 11:05:00,85.5,71.9,30.01,ESE,115,1.0,9.0,64,0.00,,,0.00,Wunderground v.1.15,2013-06-25 15:05:00,
2013-06-25 11:15:00,85.3,71.3,30.02,ENE,76,1.0,9.0,63,0.00,,,0.00,Wunderground v.1.15,2013-06-25 15:15:00,
2013-06-25 11:20:00,85.9,71.8,30.02,ESE,111,1.0,1.0,63,0.00,,,0.00,Wunderground v.1.15,2013-06-25 15:20:00,
2013-06-25 11:30:00,85.9,71.4,30.02,ENE,68,1.0,1.0,62,0.00,,,0.00,Wunderground v.1.15,2013-06-25 15:30:00,
2013-06-25 11:40:00,85.7,71.2,30.02,ESE,117,2.0,2.0,62,0.00,,,0.00,Wunderground v.1.15,2013-06-25 15:40:00,
2013-06-25 11:45:00,85.7,70.2,30.01,ENE,76,1.0,9.0,60,0.00,,,0.00,Wunderground v.1.15,2013-06-25 15:45:00,
2013-06-25 11:55:00,87.0,70.9,30.01,ESE,115,1.0,9.0,59,0.00,,,0.00,Wunderground v.1.15,2013-06-25 15:55:00,
2013-06-25 12:05:00,87.2,71.6,30.01,ESE,108,0.0,9.0,60,0.00,,,0.00,Wunderground v.1.15,2013-06-25 16:05:00,
2013-06-25 12:15:00,87.0,70.9,30.01,East,93,0.0,1.0,59,0.00,,,0.00,Wunderground v.1.15,2013-06-25 16:15:00,
2013-06-25 12:20:00,87.0,70.4,30.01,SSE,152,3.0,3.0,58,0.00,,,0.00,Wunderground v.1.15,2013-06-25 16:20:00,
2013-06-25 12:30:00,86.3,69.8,30.00,ESE,122,2.0,2.0,58,0.00,,,0.00,Wunderground v.1.15,2013-06-25 16:30:00,
2013-06-25 12:40:00,87.8,70.7,30.00,North,358,1.0,1.0,57,0.00,,,0.00,Wunderground v.1.15,2013-06-25 16:40:00,
2013-06-25 12:45:00,88.4,70.7,30.00,NNE,18,2.0,2.0,56,0.00,,,0.00,Wunderground v.1.15,2013-06-25 16:45:00,
2013-06-25 12:55:00,88.6,70.4,30.00,South,173,0.0,1.0,55,0.00,,,0.00,Wunderground v.1.15,2013-06-25 16:55:00,
2013-06-25 13:05:00,88.0,71.4,30.00,ENE,77,0.0,9.0,58,0.00,,,0.00,Wunderground v.1.15,2013-06-25 17:05:00,
2013-06-25 13:15:00,87.6,70.0,30.00,ESE,116,3.0,10.0,56,0.00,,,0.00,Wunderground v.1.15,2013-06-25 17:15:00,
2013-06-25 13:20:00,88.0,69.8,30.00,ENE,68,1.0,1.0,55,0.00,,,0.00,Wunderground v.1.15,2013-06-25 17:20:00,
2013-06-25 13:30:00,88.2,70.0,29.99,East,80,1.0,1.0,55,0.00,,,0.00,Wunderground v.1.15,2013-06-25 17:30:00,
2013-06-25 13:40:00,88.4,70.7,29.99,East,80,0.0,10.0,56,0.00,,,0.00,Wunderground v.1.15,2013-06-25 17:40:00,
2013-06-25 13:45:00,89.5,70.7,29.98,SE,136,0.0,10.0,54,0.00,,,0.00,Wunderground v.1.15,2013-06-25 17:45:00,
2013-06-25 13:55:00,89.0,70.2,29.98,SE,141,0.0,10.0,54,0.00,,,0.00,Wunderground v.1.15,2013-06-25 17:55:00,
2013-06-25 14:05:00,89.3,70.5,29.98,North,4,0.0,10.0,54,0.00,,,0.00,Wunderground v.1.15,2013-06-25 18:05:00,
2013-06-25 14:10:00,89.5,70.1,29.98,ENE,57,0.0,10.0,53,0.00,,,0.00,Wunderground v.1.15,2013-06-25 18:10:00,
2013-06-25 14:20:00,89.7,70.3,29.97,NE,39,3.0,3.0,53,0.00,,,0.00,Wunderground v.1.15,2013-06-25 18:20:00,
2013-06-25 14:30:00,89.3,69.9,29.97,SE,124,1.0,1.0,53,0.00,,,0.00,Wunderground v.1.15,2013-06-25 18:30:00,
2013-06-25 14:40:00,89.7,69.7,29.97,ESE,117,1.0,1.0,52,0.00,,,0.00,Wunderground v.1.15,2013-06-25 18:40:00,
2013-06-25 14:45:00,89.5,69.5,29.96,NNE,30,1.0,6.0,52,0.00,,,0.00,Wunderground v.1.15,2013-06-25 18:45:00,
2013-06-25 14:55:00,90.7,70.1,29.96,ESE,102,1.0,2.0,51,0.00,,,0.00,Wunderground v.1.15,2013-06-25 18:55:00,
2013-06-25 15:00:00,91.0,67.3,29.96,East,96,1.0,10.0,46,0.00,,,0.00,Wunderground v.1.15,2013-06-25 19:00:00,
2013-06-25 15:10:00,89.7,69.2,29.96,East,98,5.0,5.0,51,0.00,,,0.00,Wunderground v.1.15,2013-06-25 19:10:00,
2013-06-25 15:20:00,90.3,69.7,29.95,NNW,342,0.0,0.0,51,0.00,,,0.00,Wunderground v.1.15,2013-06-25 19:20:00,
2013-06-25 15:30:00,90.3,69.1,29.95,NW,316,2.0,2.0,50,0.00,,,0.00,Wunderground v.1.15,2013-06-25 19:30:00,
2013-06-25 15:35:00,90.5,73.7,29.95,NNW,330,1.0,4.0,58,0.00,,,0.00,Wunderground v.1.15,2013-06-25 19:35:00,
2013-06-25 15:45:00,88.4,73.2,29.94,NW,324,6.0,6.0,61,0.00,,,0.00,Wunderground v.1.15,2013-06-25 19:45:00,
2013-06-25 15:55:00,87.8,73.2,29.94,NW,321,8.0,16.0,62,0.00,,,0.00,Wunderground v.1.15,2013-06-25 19:55:00,
2013-06-25 16:05:00,88.6,72.4,29.93,NW,319,17.0,27.0,59,0.00,,,0.00,Wunderground v.1.15,2013-06-25 20:05:00,
2013-06-25 16:10:00,88.6,72.9,29.93,NNW,331,8.0,8.0,60,0.00,,,0.00,Wunderground v.1.15,2013-06-25 20:10:00,
2013-06-25 16:20:00,88.2,74.0,29.92,West,277,9.0,17.0,63,0.00,,,0.00,Wunderground v.1.15,2013-06-25 20:20:00,
2013-06-25 16:30:00,88.2,73.5,29.92,WNW,293,9.0,25.0,62,0.00,,,0.00,Wunderground v.1.15,2013-06-25 20:30:00,
2013-06-25 16:35:00,88.0,73.8,29.92,West,281,15.0,27.0,63,0.00,,,0.00,Wunderground v.1.15,2013-06-25 20:35:00,
2013-06-25 16:45:00,87.8,73.2,29.91,West,274,14.0,18.0,62,0.00,,,0.00,Wunderground v.1.15,2013-06-25 20:45:00,
2013-06-25 16:50:00,87.6,73.4,29.91,NW,321,11.0,11.0,63,0.00,,,0.00,Wunderground v.1.15,2013-06-25 20:50:00,
2013-06-25 17:00:00,88.6,73.4,29.90,NW,304,8.0,8.0,61,0.00,,,0.00,Wunderground v.1.15,2013-06-25 21:00:00,
2013-06-25 17:10:00,89.0,73.3,29.90,West,265,10.0,10.0,60,0.00,,,0.00,Wunderground v.1.15,2013-06-25 21:10:00,
2013-06-25 17:20:00,89.7,73.5,29.90,WNW,291,11.0,11.0,59,0.00,,,0.00,Wunderground v.1.15,2013-06-25 21:20:00,
2013-06-25 17:30:00,88.8,74.6,29.89,West,264,10.0,10.0,63,0.00,,,0.00,Wunderground v.1.15,2013-06-25 21:30:00,
2013-06-25 17:35:00,88.6,73.9,29.89,WSW,247,6.0,11.0,62,0.00,,,0.00,Wunderground v.1.15,2013-06-25 21:35:00,
2013-06-25 17:45:00,89.3,74.6,29.90,NW,316,10.0,14.0,62,0.00,,,0.00,Wunderground v.1.15,2013-06-25 21:45:00,
2013-06-25 17:55:00,87.4,73.3,29.90,West,281,17.0,19.0,63,0.00,,,0.00,Wunderground v.1.15,2013-06-25 21:55:00,
2013-06-25 18:05:00,86.1,74.3,29.91,WNW,290,18.0,25.0,68,0.00,,,0.00,Wunderground v.1.15,2013-06-25 22:05:00,
2013-06-25 18:15:00,85.9,74.1,29.91,WNW,293,15.0,20.0,68,0.00,,,0.00,Wunderground v.1.15,2013-06-25 22:15:00,
2013-06-25 18:20:00,86.3,74.5,29.91,WNW,285,12.0,13.0,68,0.00,,,0.00,Wunderground v.1.15,2013-06-25 22:20:00,
2013-06-25 18:30:00,86.7,74.0,29.91,NW,307,17.0,19.0,66,0.00,,,0.00,Wunderground v.1.15,2013-06-25 22:30:00,
2013-06-25 18:40:00,85.9,73.7,29.91,NW,314,16.0,16.0,67,0.00,,,0.00,Wunderground v.1.15,2013-06-25 22:40:00,
2013-06-25 18:45:00,86.3,74.0,29.91,WNW,300,14.0,16.0,67,0.00,,,0.00,Wunderground v.1.15,2013-06-25 22:45:00,
2013-06-25 18:55:00,86.3,74.0,29.91,WNW,291,15.0,17.0,67,0.00,,,0.00,Wunderground v.1.15,2013-06-25 22:55:00,
2013-06-25 19:05:00,86.3,74.0,29.91,NW,309,13.0,33.0,67,0.00,,,0.00,Wunderground v.1.15,2013-06-25 23:05:00,
2013-06-25 19:10:00,86.3,74.5,29.91,WNW,288,13.0,33.0,68,0.00,,,0.00,Wunderground v.1.15,2013-06-25 23:10:00,
2013-06-25 19:20:00,86.3,74.5,29.91,WNW,285,10.0,10.0,68,0.00,,,0.00,Wunderground v.1.15,2013-06-25 23:20:00,
2013-06-25 19:30:00,86.5,75.1,29.92,WNW,297,9.0,9.0,69,0.00,,,0.00,Wunderground v.1.15,2013-06-25 23:30:00,
2013-06-25 19:35:00,86.3,74.9,29.92,West,273,7.0,33.0,69,0.00,,,0.00,Wunderground v.1.15,2013-06-25 23:35:00,
2013-06-25 19:45:00,86.1,74.7,29.91,West,280,8.0,33.0,69,0.00,,,0.00,Wunderground v.1.15,2013-06-25 23:45:00,
2013-06-25 19:55:00,85.7,74.8,29.91,West,274,5.0,33.0,70,0.00,,,0.00,Wunderground v.1.15,2013-06-25 23:55:00,
2013-06-25 20:05:00,85.3,74.8,29.91,West,263,4.0,6.0,71,0.00,,,0.00,Wunderground v.1.15,2013-06-26 00:05:00,
2013-06-25 20:10:00,84.9,75.3,29.91,SW,215,4.0,4.0,73,0.00,,,0.00,Wunderground v.1.15,2013-06-26 00:10:00,
2013-06-25 20:20:00,82.0,76.0,29.93,WSW,247,8.0,33.0,82,0.35,,,0.12,Wunderground v.1.15,2013-06-26 00:20:00,
2013-06-25 20:25:00,80.5,73.8,29.93,West,271,13.0,33.0,80,0.10,,,0.12,Wunderground v.1.15,2013-06-26 00:25:00,
2013-06-25 20:35:00,78.8,72.5,29.93,SSW,211,13.0,33.0,81,0.07,,,0.13,Wunderground v.1.15,2013-06-26 00:35:00,
2013-06-25 20:45:00,78.5,73.6,29.94,SSE,158,1.0,33.0,85,0.05,,,0.14,Wunderground v.1.15,2013-06-26 00:45:00,
2013-06-25 20:55:00,77.6,72.4,29.94,SSE,152,7.0,33.0,84,0.07,,,0.15,Wunderground v.1.15,2013-06-26 00:55:00,
2013-06-25 21:00:00,77.0,71.8,29.95,South,188,5.0,33.0,84,0.04,,,0.15,Wunderground v.1.15,2013-06-26 01:00:00,
2013-06-25 21:10:00,76.1,71.3,29.95,South,183,8.0,19.0,85,0.00,,,0.15,Wunderground v.1.15,2013-06-26 01:10:00,
2013-06-25 21:20:00,75.3,70.8,29.97,ESE,119,7.0,7.0,86,0.00,,,0.15,Wunderground v.1.15,2013-06-26 01:20:00,
2013-06-25 21:25:00,74.9,70.4,29.97,South,174,6.0,7.0,86,0.40,,,0.18,Wunderground v.1.15,2013-06-26 01:25:00,
2013-06-25 21:35:00,74.6,70.8,29.97,South,186,1.0,3.0,88,0.11,,,0.20,Wunderground v.1.15,2013-06-26 01:35:00,
2013-06-25 21:40:00,74.4,70.6,29.97,WSW,251,0.0,0.0,88,0.06,,,0.20,Wunderground v.1.15,2013-06-26 01:40:00,
2013-06-25 21:50:00,74.2,71.1,29.97,SW,234,3.0,3.0,90,0.06,,,0.21,Wunderground v.1.15,2013-06-26 01:50:00,
2013-06-25 22:00:00,74.4,71.6,29.97,SW,226,0.0,0.0,91,0.00,,,0.21,Wunderground v.1.15,2013-06-26 02:00:00,
2013-06-25 22:10:00,74.6,72.1,29.97,SW,226,0.0,24.0,92,0.00,,,0.21,Wunderground v.1.15,2013-06-26 02:10:00,
2013-06-25 22:15:00,74.7,72.2,29.97,SW,227,0.0,24.0,92,0.00,,,0.21,Wunderground v.1.15,2013-06-26 02:15:00,
2013-06-25 22:25:00,75.1,72.6,29.97,SSW,212,0.0,24.0,92,0.00,,,0.21,Wunderground v.1.15,2013-06-26 02:25:00,
2013-06-25 22:30:00,75.1,72.9,29.95,ESE,116,0.0,24.0,93,0.00,,,0.21,Wunderground v.1.15,2013-06-26 02:30:00,
2013-06-25 22:40:00,74.9,72.7,29.95,ESE,110,0.0,24.0,93,0.00,,,0.21,Wunderground v.1.15,2013-06-26 02:40:00,
2013-06-25 22:50:00,75.1,72.9,29.95,ESE,110,0.0,24.0,93,0.00,,,0.21,Wunderground v.1.15,2013-06-26 02:50:00,